sat.trackr.live / text

‹ back to catalog

STARLINK-1609

NORAD 47621 · 2021-012B

PAYLOAD ACTIVE UNKNOWN

§ Identity

Operator
Country
US
Launch date
2021-02-16
Launch site
AFETR
Launch vehicle
Mass (kg)
RCS (m²)

Purposes: comms

External: N2YO · Heavens-Above · Gunter

§ Orbital elements

Epoch: 2026-09-19T12:24:49.955904Z

Period
92.37 min
Inclination
53.1507°
Eccentricity
0.0004108
Mean motion
15.58967203 rev/d
Perigee alt
387.9 km
Apogee alt
393.4 km
Semi-major
6,768.8 km
B*
1.1920e-3
RAAN
222.7602°
Arg perigee
78.6092°
Mean anomaly
281.5382°
Rev number
31,007

§ Raw data

STARLINK-16091 47621U 21012B   26262.51724486  .00094973  00000+0  11920-2 0  99972 47621  53.1507 222.7602 0004108  78.6092 281.5382 15.58967203310075

JSON: /api/v1/satellites/47621 · /tle

For live sub-satellite position, see the globe view (requires WebGL).

§ Visibility from observer

Set your observer location to see the next 7 days of passes ≥ 10°. The values pass through the URL so the page stays shareable.

No JS? Fill the form by hand. The geolocation button needs JavaScript.